Location: D�pe
(52.6057°N, 8.1808°E)
Time: 07:48:59
(UTC+00:00)

Feng Yun 1-1 Rocket - Pass Details

Date: 29 October 2020
Orbit: 829 x 934 km, 99.2° (Epoch: 01 December)

Event Time Altitude Azimuth Distance (km) Brightness Sun altitude
Rises 16:40:44 0° 147° (SSE) 3,572 7.3 -6.4°
Reaches altitude 10° 16:43:10 10° 144° (SE) 2,637 6.6 -6.8°
Maximum altitude 16:48:58 59° 66° (ENE) 1,078 4.5 -7.6°
Drops below altitude 10° 16:54:46 10° 349° (N) 2,647 6.8 -8.5°
Sets 16:57:14 0° 346° (NNW) 3,586 7.5 -8.8°
